Location: Mactaquac Provincial Park
(45.9573°N, 66.8897°W)
Time: 14:37:34
(UTC-03:00)

Cosmos 1867 - Visible Passes

Search period start: 24 September 2017 00:00
Search period end: 04 October 2017 00:00
Orbit: 778 x 798 km, 65.0° (Epoch: 23 September)

Date Brightness Start Highest point End Pass type
(mag) Time Alt. Az. Time Alt. Az. Time Alt. Az.
24 Sep 6.4 01:47:12 13° N 01:47:12 13° N 01:48:00 10° NNE visible
24 Sep 6.3 03:28:39 10° NNW 03:29:33 10° N 03:30:27 10° N visible
24 Sep 6.2 05:13:12 10° N 05:15:44 13° NNE 05:18:15 10° NE visible
25 Sep 6.5 01:16:24 10° NNE 01:16:24 10° NNE 01:16:28 10° NNE visible
25 Sep 6.3 02:57:03 11° NNW 02:57:28 11° NNW 02:59:02 10° N visible
25 Sep 6.3 04:41:44 10° N 04:43:41 12° NNE 04:45:38 10° NE visible
25 Sep 5.5 06:24:21 10° NNW 06:29:09 30° NE 06:33:53 10° E visible
26 Sep 6.4 02:26:15 12° N 02:26:15 12° N 02:27:34 10° N visible
26 Sep 6.4 04:10:17 10° N 04:11:38 11° N 04:12:57 10° NNE visible
26 Sep 5.7 05:52:49 10° NNW 05:57:16 25° NE 06:01:42 10° E visible
27 Sep 6.5 01:55:30 11° N 01:55:30 11° N 01:56:06 10° N visible
27 Sep 6.5 03:38:56 10° N 03:39:33 10° N 03:40:09 10° NNE visible
27 Sep 5.9 05:21:18 10° NNW 05:25:22 21° NNE 05:29:25 10° E visible
28 Sep 6.1 04:49:47 10° NNW 04:53:26 18° NNE 04:57:03 10° ENE visible
28 Sep 4.2 06:32:42 10° NNW 06:38:08 62° NE 06:43:31 10° SE visible
29 Sep 6.3 04:18:17 10° NNW 04:21:27 15° NNE 04:24:36 10° ENE visible
29 Sep 4.6 06:01:05 10° NNW 06:06:24 48° NE 06:11:39 10° ESE visible
30 Sep 6.3 03:46:48 10° N 03:49:27 13° NNE 03:52:04 10° NE visible
30 Sep 5.0 05:29:31 10° NNW 05:34:37 38° NE 05:39:41 10° ESE visible
01 Oct 6.4 03:15:19 10° N 03:17:25 12° NNE 03:19:28 10° NE visible
01 Oct 5.3 04:57:58 10° NNW 05:02:48 31° NE 05:07:37 10° ESE visible
01 Oct 3.7 06:41:22 10° NW 06:46:43 57° WSW 06:52:00 10° SSE visible
01 Oct 4.7 21:24:28 10° SSW 21:27:12 29° S 21:27:12 29° S visible
02 Oct 6.5 02:44:12 10° N 02:45:20 11° NNE 02:46:48 10° NNE visible
02 Oct 5.6 04:26:25 10° NNW 04:30:57 26° NE 04:35:27 10° E visible
02 Oct 3.5 06:09:38 10° NW 06:15:06 75° WSW 06:20:31 10° SSE visible
02 Oct 3.8 20:53:07 10° S 20:58:13 43° ESE 20:58:44 42° E visible
02 Oct 5.4 22:36:50 10° WSW 22:39:33 26° W 22:39:33 26° W visible
03 Oct 5.8 03:55:05 11° NNW 03:59:03 21° NNE 04:03:11 10° E visible
03 Oct 3.6 05:37:57 10° NW 05:43:27 84° NE 05:48:54 10° SE visible
03 Oct 4.2 20:21:55 10° S 20:26:41 32° ESE 20:29:59 17° ENE visible
03 Oct 4.4 22:04:52 10° WSW 22:10:07 47° NW 22:10:45 45° NNW visible
